Jamestown, NY

3:26 AM EST on December 06, 2019 (GMT -0500)
Chautauqua County-Jamestown

Weather History for KJHW - October, 2019

Change the Weather History Date:

Saturday, October 26, 2019

  Actual Average Record
Temperature  
Mean Temperature 47 °F -  
Max Temperature 55 °F 56 °F 78 °F (1989)
Min Temperature 39 °F 32 °F 15 °F (1987)
Degree Days  
Heating Degree Days 18    
Moisture  
Dew Point 42 °F    
Average Humidity 91    
Maximum Humidity 100    
Minimum Humidity 57    
Precipitation  
Precipitation 0.36 in - - ()
Sea Level Pressure  
Sea Level Pressure 30.17 in    
Wind  
Wind Speed 6 mph (East)    
Max Wind Speed 15 mph    
Max Gust Speed 22 mph    
Visibility 6 miles    
Events Fog , Rain    
Averages and records for this station are not official NWS values.
T = Trace of Precipitation, MM = Missing Value Source: NWS Daily Summary

Daily Weather History Graph

Daily Weather History Graph

Search for Another Location

Airport or City:

Astronomy

Oct. 26, 2019 Rise Set
Actual Time 7:42 AM EDT 6:19 PM EDT
Civil Twilight 7:13 AM EDT 6:47 PM EDT
Nautical Twilight 6:40 AM EDT 7:20 PM EDT
Astronomical Twilight 6:08 AM EDT 7:52 PM EDT
Moon 5:32 AM EDT (10/26) 5:56 PM EDT (10/26)
Length of Visible Light 11h 34m
Length of Day
10h 36m
Waning Crescent, 3% of the Moon is Illuminated
Oct 26
Waning Crescent
Oct 27
New
Nov 4
First Quarter
Nov 12
Full
Nov 19
Last Quarter

Hourly Weather History & Observations

Time (EDT) Temp. Windchill Dew Point Humidity Pressure Visibility Wind Dir Wind Speed Gust Speed Precip Events Conditions
12:56 AM 44.1 °F 40.8 °F 39.0 °F 82% 30.24 in 10.0 mi WSW 5.8 mph - N/A   Partly Cloudy
1:12 AM 42.8 °F 38.6 °F 39.2 °F 87% 30.20 in 10.0 mi SW 6.9 mph - N/A   Mostly Cloudy
1:38 AM 42.8 °F 39.3 °F 41.0 °F 93% 30.20 in 10.0 mi WSW 5.8 mph - N/A   Overcast
1:56 AM 43.0 °F 38.2 °F 41.0 °F 93% 30.24 in 10.0 mi WSW 8.1 mph - N/A   Overcast
2:32 AM 42.8 °F 38.0 °F 42.8 °F 100% 30.20 in 9.0 mi WNW 8.1 mph - N/A   Scattered Clouds
2:56 AM 43.0 °F 38.2 °F 42.1 °F 97% 30.24 in 5.0 mi WNW 8.1 mph - N/A   Partly Cloudy
3:14 AM 42.8 °F 39.3 °F 42.8 °F 100% 30.20 in 3.0 mi WNW 5.8 mph - N/A   Mostly Cloudy
3:31 AM 42.8 °F 39.3 °F 42.8 °F 100% 30.21 in 4.0 mi NW 5.8 mph - N/A   Overcast
3:56 AM 43.0 °F 41.3 °F 42.1 °F 97% 30.25 in 5.0 mi NNW 3.5 mph - N/A   Mostly Cloudy
4:28 AM 42.8 °F 40.1 °F 42.8 °F 100% 30.21 in 5.0 mi NNW 4.6 mph - N/A   Overcast
4:36 AM 42.8 °F 41.1 °F 42.8 °F 100% 30.21 in 5.0 mi NNW 3.5 mph - N/A   Overcast
4:56 AM 43.0 °F 40.3 °F 42.1 °F 97% 30.26 in 5.0 mi NNW 4.6 mph - N/A   Mostly Cloudy
5:11 AM 42.8 °F 39.3 °F 42.8 °F 100% 30.22 in 7.0 mi North 5.8 mph - N/A   Overcast
5:37 AM 42.8 °F 40.1 °F 41.0 °F 93% 30.22 in 5.0 mi North 4.6 mph - N/A   Scattered Clouds
5:56 AM 42.1 °F 39.2 °F 41.0 °F 96% 30.28 in 4.0 mi North 4.6 mph - N/A   Scattered Clouds
6:03 AM 42.8 °F 40.1 °F 41.0 °F 93% 30.23 in 4.0 mi North 4.6 mph - N/A   Mostly Cloudy
6:16 AM 41.0 °F 37.1 °F 41.0 °F 100% 30.23 in 4.0 mi NNE 5.8 mph - N/A   Overcast
6:23 AM 41.0 °F 38.0 °F 39.2 °F 93% 30.23 in 1.8 mi NNE 4.6 mph - N/A   Overcast
6:26 AM 41.0 °F 37.1 °F 39.2 °F 93% 30.23 in 0.8 mi NE 5.8 mph - N/A   Overcast
6:38 AM 41.0 °F 38.0 °F 39.2 °F 93% 30.23 in 0.2 mi NNE 4.6 mph - N/A Fog Fog
6:56 AM 39.9 °F 36.7 °F 39.0 °F 97% 30.27 in 0.2 mi North 4.6 mph - N/A Fog Fog
7:12 AM 39.2 °F - 39.2 °F 100% 30.22 in 0.5 mi Calm Calm - N/A Fog Fog
7:16 AM 39.2 °F 37.0 °F 39.2 °F 100% 30.22 in 0.2 mi NE 3.5 mph - N/A Fog Fog
7:35 AM 39.2 °F 37.0 °F 39.2 °F 100% 30.22 in 0.2 mi NE 3.5 mph - N/A Fog Fog
7:54 AM 39.2 °F - 39.2 °F 100% 30.23 in 0.8 mi Calm Calm - N/A   Overcast
7:56 AM 39.9 °F 37.8 °F 39.9 °F 100% 30.28 in 1.0 mi East 3.5 mph - N/A   Overcast
8:03 AM 39.2 °F 35.0 °F 39.2 °F 100% 30.23 in 1.8 mi East 5.8 mph - N/A   Overcast
8:56 AM 39.9 °F 37.8 °F 39.9 °F 100% 30.29 in 2.0 mi East 3.5 mph - N/A   Overcast
9:24 AM 41.0 °F 36.4 °F 39.2 °F 93% 30.24 in 3.0 mi East 6.9 mph - N/A   Overcast
9:56 AM 42.1 °F 38.4 °F 39.9 °F 92% 30.27 in 3.0 mi ENE 5.8 mph - N/A   Mostly Cloudy
10:33 AM 44.6 °F 40.7 °F 39.2 °F 81% 30.21 in 7.0 mi ESE 6.9 mph - N/A   Scattered Clouds
10:56 AM 45.0 °F 40.6 °F 39.9 °F 82% 30.25 in 9.0 mi East 8.1 mph - N/A   Clear
11:56 AM 48.9 °F - 39.9 °F 71% 30.22 in 10.0 mi ESE 6.9 mph - N/A   Clear
12:56 PM 51.1 °F - 39.0 °F 63% 30.19 in 10.0 mi SE 5.8 mph - N/A   Clear
1:56 PM 54.0 °F - 39.9 °F 59% 30.16 in 10.0 mi ESE 6.9 mph - N/A   Clear
2:56 PM 55.0 °F - 39.9 °F 57% 30.14 in 10.0 mi South 6.9 mph - N/A   Clear
3:56 PM 55.9 °F - 42.1 °F 60% 30.11 in 10.0 mi South 5.8 mph - N/A   Partly Cloudy
4:56 PM 53.1 °F - 45.0 °F 74% 30.11 in 10.0 mi SSE 8.1 mph - 0.00 in Rain Light Rain
5:56 PM 51.1 °F - 46.0 °F 83% 30.09 in 10.0 mi SE 8.1 mph - 0.00 in Rain Light Rain
6:39 PM 50.0 °F - 46.4 °F 87% 30.06 in 10.0 mi SSE 8.1 mph - 0.00 in Rain Light Rain
6:49 PM 50.0 °F - 46.4 °F 87% 30.04 in 10.0 mi SSE 11.5 mph - 0.00 in Rain Light Rain
6:56 PM 50.0 °F - 46.9 °F 89% 30.08 in 10.0 mi SSE 9.2 mph - 0.01 in Rain Light Rain
7:56 PM 48.9 °F - 48.0 °F 97% 30.06 in 8.0 mi SSE 9.2 mph - 0.05 in Rain Light Rain
8:12 PM 48.2 °F - 48.2 °F 100% 30.03 in 8.0 mi South 11.5 mph - 0.02 in Rain Light Rain
8:21 PM 48.2 °F - 48.2 °F 100% 30.02 in 8.0 mi SSE 10.4 mph 17.3 mph 0.02 in Rain Light Rain
8:32 PM 48.2 °F - 48.2 °F 100% 30.01 in 10.0 mi SSE 13.8 mph - 0.03 in Rain Light Rain
8:56 PM 48.9 °F - 48.0 °F 97% 30.04 in 10.0 mi South 11.5 mph 19.6 mph 0.05 in Rain Light Rain
9:56 PM 48.9 °F - 46.9 °F 93% 30.02 in 9.0 mi South 12.7 mph 18.4 mph 0.08 in Rain Light Rain
10:56 PM 48.9 °F - 48.0 °F 97% 29.98 in 8.0 mi SSE 15.0 mph 21.9 mph 0.12 in Rain Light Rain
11:56 PM 50.0 °F - 48.0 °F 93% 29.91 in 10.0 mi SSE 10.4 mph 17.3 mph 0.05 in Rain Light Rain